Weather History for Albany, NY

Change the Weather History Date:

Monday, May 7, 2012

  Actual Average Record
Temperature  
Mean Temperature 59 °F 56 °F  
Max Temperature 73 °F 67 °F 92 °F (1930)
Min Temperature 44 °F 44 °F 29 °F (1874)
Degree Days  
Heating Degree Days 6 10  
Month to date heating degree days 57 75  
Since 1 July heating degree days 5227 6468  
Cooling Degree Days 0 0  
Month to date cooling degree days 1 0  
Year to date cooling degree days 9 4  
Growing Degree Days 8 (Base 50)    
Moisture  
Dew Point 41 °F    
Average Humidity 63    
Maximum Humidity 93    
Minimum Humidity 33    
Precipitation  
Precipitation 0.07 in 0.11 in 1.30 in (1908)
Month to date precipitation 1.30 0.76  
Year to date precipitation 9.07 11.93  
Snow  
Snow 0.00 in 0.10 in 0.20 in ()
Month to date snowfall 0.0 0.1  
Since 1 July snowfall 23.3 59.1  
Snow Depth 0.00 in    
Sea Level Pressure  
Sea Level Pressure 30.07 in    
Wind  
Wind Speed 7 mph (South)    
Max Wind Speed 23 mph    
Max Gust Speed 33 mph    
Visibility 10 miles    
Events Rain    
T = Trace of Precipitation, MM = Missing Value Source: NWS Daily Summary

Daily Weather History Graph

Daily Weather History Graph

Search for Another Location

Airport:

Trip Planner

Search our weather history database for the weather conditions in past years. The results will help you decide how hot, cold, wet, or windy it might be!

Date:

Astronomy

May. 07, 2012 Rise Set
Actual Time 5:41 AM EDT 8:02 PM EDT
Civil Twilight 5:09 AM EDT 8:34 PM EDT
Nautical Twilight 4:30 AM EDT 9:13 PM EDT
Astronomical Twilight 3:46 AM EDT 9:57 PM EDT
Moon 10:14 PM EDT (5/7) 6:42 AM EDT (5/7)
Length of Visible Light 15h 24m
Length of Day
14h 21m
Waning Gibbous, 97% of the Moon is Illuminated
May 7
Waning Gibbous
May 12
Last Quarter
May 20
New
May 28
First Quarter
Jun 4
Full

Hourly Weather History & Observations

Time (EDT) Temp. Windchill Dew Point Humidity Pressure Visibility Wind Dir Wind Speed Gust Speed Precip Events Conditions
12:51 AM 51.1 °F - 25.0 °F 36% 30.11 in 10.0 mi Calm Calm - N/A   Partly Cloudy
1:51 AM 45.0 °F 42.6 °F 33.1 °F 63% 30.10 in 10.0 mi NNW 4.6 mph - N/A   Mostly Cloudy
2:51 AM 46.9 °F - 33.1 °F 59% 30.10 in 10.0 mi Calm Calm - N/A   Mostly Cloudy
3:51 AM 46.9 °F - 34.0 °F 61% 30.10 in 10.0 mi North 3.5 mph - N/A   Mostly Cloudy
4:51 AM 46.9 °F - 34.0 °F 61% 30.11 in 10.0 mi NNW 4.6 mph - N/A   Mostly Cloudy
5:51 AM 45.0 °F - 33.1 °F 63% 30.12 in 10.0 mi Calm Calm - N/A   Scattered Clouds
6:51 AM 46.0 °F - 34.0 °F 63% 30.13 in 10.0 mi Calm Calm - N/A   Scattered Clouds
7:51 AM 50.0 °F - 34.0 °F 54% 30.14 in 10.0 mi North 3.5 mph - N/A   Scattered Clouds
8:51 AM 54.0 °F - 36.0 °F 51% 30.13 in 10.0 mi Calm Calm - N/A   Scattered Clouds
9:51 AM 59.0 °F - 37.9 °F 46% 30.13 in 10.0 mi Calm Calm - N/A   Scattered Clouds
10:51 AM 63.0 °F - 42.1 °F 46% 30.13 in 10.0 mi Calm Calm - N/A   Scattered Clouds
11:51 AM 64.9 °F - 36.0 °F 34% 30.11 in 10.0 mi Variable 3.5 mph - N/A   Scattered Clouds
12:51 PM 69.1 °F - 39.0 °F 33% 30.08 in 10.0 mi Variable 3.5 mph - N/A   Scattered Clouds
1:51 PM 70.0 °F - 42.1 °F 36% 30.07 in 10.0 mi SSW 6.9 mph - N/A   Mostly Cloudy
2:51 PM 72.0 °F - 48.9 °F 44% 30.05 in 10.0 mi SSW 9.2 mph - N/A   Mostly Cloudy
3:51 PM 72.0 °F - 48.0 °F 43% 30.02 in 10.0 mi South 9.2 mph - N/A   Mostly Cloudy
4:51 PM 70.0 °F - 50.0 °F 49% 30.00 in 10.0 mi South 10.4 mph 21.9 mph N/A   Mostly Cloudy
5:51 PM 68.0 °F - 50.0 °F 52% 30.00 in 10.0 mi South 13.8 mph 20.7 mph N/A   Overcast
6:51 PM 66.0 °F - 50.0 °F 56% 30.00 in 10.0 mi South 11.5 mph - N/A   Overcast
7:51 PM 64.9 °F - 50.0 °F 58% 30.00 in 10.0 mi SSE 12.7 mph - N/A   Overcast
8:51 PM 64.0 °F - 48.9 °F 58% 30.00 in 10.0 mi South 16.1 mph 24.2 mph N/A   Overcast
9:51 PM 62.1 °F - 48.9 °F 62% 30.01 in 10.0 mi South 17.3 mph 25.3 mph N/A   Overcast
10:51 PM 57.0 °F - 51.1 °F 81% 30.02 in 10.0 mi South 11.5 mph 23.0 mph 0.00 in Rain Light Rain
11:51 PM 53.1 °F - 51.1 °F 93% 30.03 in 7.0 mi South 6.9 mph - 0.04 in Rain Light Rain